[[{"header":{"parameterUnit":"m.s-1","parameterCategory":1,"la1":30.2992,"la2":30.254,"lo1":-89.0895,"lo2":-89.0443,"dy":0.0025,"dx":0.0025,"nx":19,"ny":19,"refTime":"2026-05-02T03:00:00:Z","depth":0,"parameterNumber":2,"parameterNumberName":"U-component_of_WINDS"},"data":[0,0,0,0.4122,0.4121,0.4086,0.4086,0.4038,0.4038,0,0,0,0,0,0,0,0,0,0,0,0.4131,0.4131,0.4122,0.4121,0.4086,0.4086,0.4038,0.4038,0,0,0,0,0,0,0,0,0,0,0,0.4131,0.4131,0.4131,0.4121,0.4086,0.4086,0.4038,0.4066,0,0,0,0,0,0,0,0,0,0,0.41,0.4108,0.4131,0.4131,0.4121,0.4086,0.4086,0.4067,0.4064,0.4053,0,0.4044,0,0.404,0.4035,0.4034,0,0,0,0.4122,0.411,0.4102,0.4131,0.4121,0.4086,0.4102,0.4065,0.4062,0.4049,0.4043,0.4041,0.4039,0.4034,0.4034,0.3972,0.3972,0,0,0.4124,0.4124,0.4105,0.41,0.4106,0.4103,0.4101,0.4063,0.4056,0.4043,0.404,0.4039,0.4034,0.4033,0.3972,0.3972,0,0,0,0.4129,0.4125,0.4118,0.4102,0.4096,0.4102,0.41,0.4058,0.4056,0.404,0.4038,0.4034,0.4033,0.3973,0.3972,0.3957,0,0,0,0.413,0.4128,0.4119,0.4119,0.4096,0.4077,0.4095,0.4058,0.4054,0.4038,0.4034,0.4032,0.3973,0.3972,0.3958,0.3949,0,0,0,0.4134,0.4129,0.4123,0.4119,0.4104,0.4077,0.4073,0.4058,0.4053,0.4034,0.4032,0.3973,0.3972,0.3959,0.395,0.3932,0,0,0,0.4138,0.4109,0.4123,0.4091,0.4104,0.4069,0.4073,0.4046,0.4028,0.4033,0.3973,0.3972,0.3959,0.3951,0.3934,0.3917,0.391,0,0,0.4102,0.4105,0.4086,0.4098,0.406,0.4074,0.4034,0.4016,0.4014,0.3986,0.3984,0.3957,0.395,0.3933,0.3874,0.3869,0,0,0,0.4074,0.4061,0.4051,0.4035,0.4022,0.4011,0.4,0.3994,0.3971,0.4,0.3947,0.3943,0.3932,0.3924,0.3919,0.391,0.3969,0.3969,0.3969,0.4022,0.4022,0.3991,0.3988,0.3972,0.3963,0.395,0.3941,0.3944,0.3932,0.3922,0.3887,0.3878,0.3874,0.3865,0.3915,0.3915,0.3915,0.3914,0.3968,0.3949,0.3957,0.3929,0.393,0.3907,0.3898,0.3901,0.3879,0.3893,0.3884,0.3898,0.3868,0.386,0.3913,0.3913,0.3914,0.3914,0.3914,0.3933,0.3923,0.3918,0.3897,0.388,0.3878,0.3857,0.3858,0.3859,0.385,0.3841,0.3841,0.3841,0.3846,0.3846,0.3846,0.3846,0.3846,0.3846,0.3897,0.3892,0.3875,0.3861,0.3852,0.384,0.3833,0.3824,0.3814,0.3816,0.3816,0.3821,0.3866,0.3877,0.3844,0.3844,0.3844,0.3844,0.3845,0.384,0.3854,0.3827,0.3818,0.3804,0.3787,0.3791,0.3772,0.3765,0.3755,0.3763,0.3797,0.3799,0.3803,0.3812,0.3763,0.3763,0.3763,0.3763,0.3809,0.3812,0.3786,0.3772,0.3758,0.3759,0.3729,0.3724,0.3721,0.3716,0.3724,0.3737,0.374,0.3741,0.3746,0.3754,0.3692,0.3692,0.3692,0.3774,0.3775,0.3749,0.3748,0.3737,0.3728,0.37,0.3684,0.3683,0.3689,0.3713,0.3716,0.3736,0.3743,0.3747,0.3755,0.377,0,0]},{"header":{"parameterUnit":"m.s-1","parameterCategory":1,"la1":30.2992,"la2":30.254,"lo1":-89.0895,"lo2":-89.0443,"dy":0.0025,"dx":0.0025,"nx":19,"ny":19,"refTime":"2026-05-02T03:00:00:Z","depth":0,"parameterNumber":3,"parameterNumberName":"V-component_of_WINDS"},"data":[0,0,0,-7.3735,-7.3741,-7.3999,-7.4,-7.4343,-7.4346,0,0,0,0,0,0,0,0,0,0,0,-7.3669,-7.3672,-7.3734,-7.3741,-7.3999,-7.4,-7.4342,-7.4346,0,0,0,0,0,0,0,0,0,0,0,-7.3668,-7.3671,-7.3675,-7.3742,-7.3999,-7.4,-7.4341,-7.4141,0,0,0,0,0,0,0,0,0,0,-7.3889,-7.3839,-7.367,-7.3675,-7.3744,-7.3998,-7.4,-7.4132,-7.4154,-7.4232,0,-7.4307,0,-7.4332,-7.437,-7.4371,0,0,0,-7.3733,-7.382,-7.3881,-7.3675,-7.3746,-7.3998,-7.388,-7.4144,-7.4169,-7.4262,-7.4312,-7.4324,-7.4338,-7.4372,-7.4374,-7.486,-7.4862,0,0,-7.3719,-7.3721,-7.3863,-7.3897,-7.3861,-7.3872,-7.3888,-7.4159,-7.4212,-7.4313,-7.4332,-7.4344,-7.4375,-7.4377,-7.4857,-7.486,0,0,0,-7.3683,-7.3711,-7.3764,-7.3884,-7.3929,-7.388,-7.3898,-7.42,-7.4218,-7.4335,-7.4348,-7.4377,-7.4381,-7.4854,-7.4858,-7.4993,0,0,0,-7.3674,-7.3691,-7.3759,-7.3762,-7.3925,-7.4069,-7.3934,-7.4199,-7.4229,-7.4346,-7.4377,-7.4385,-7.4851,-7.4856,-7.4983,-7.5057,0,0,0,-7.3649,-7.3687,-7.3729,-7.3762,-7.3873,-7.4064,-7.4097,-7.4205,-7.4238,-7.4371,-7.4386,-7.4849,-7.4855,-7.4975,-7.5042,-7.5186,0,0,0,-7.3621,-7.3844,-7.3731,-7.3984,-7.3871,-7.4147,-7.4095,-7.43,-7.4431,-7.4379,-7.4852,-7.4858,-7.4972,-7.5033,-7.5176,-7.5308,-7.5363,0,0,-7.3904,-7.3878,-7.4027,-7.3933,-7.423,-7.4107,-7.4422,-7.4539,-7.4548,-7.4755,-7.4766,-7.4987,-7.5041,-7.5184,-7.5668,-7.5712,0,0,0,-7.4117,-7.4225,-7.4302,-7.4429,-7.4524,-7.4612,-7.468,-7.4723,-7.4898,-7.4656,-7.5077,-7.5109,-7.5193,-7.5255,-7.5293,-7.5364,-7.4887,-7.4886,-7.4885,-7.4521,-7.4522,-7.4768,-7.4801,-7.4923,-7.4992,-7.509,-7.5159,-7.5124,-7.5223,-7.5285,-7.5579,-7.5652,-7.568,-7.5755,-7.5353,-7.5354,-7.5354,-7.5355,-7.4935,-7.5087,-7.5035,-7.5255,-7.5254,-7.5438,-7.5512,-7.548,-7.565,-7.5533,-7.5606,-7.5478,-7.5728,-7.5793,-7.5365,-7.5363,-7.5362,-7.5361,-7.536,-7.52,-7.5273,-7.5322,-7.5504,-7.5644,-7.5667,-7.5833,-7.5826,-7.582,-7.5892,-7.5956,-7.5954,-7.5951,-7.5923,-7.5924,-7.5925,-7.5926,-7.5927,-7.5928,-7.5456,-7.5507,-7.5649,-7.5769,-7.5849,-7.5952,-7.6022,-7.6099,-7.6183,-7.6164,-7.6164,-7.6119,-7.5753,-7.5661,-7.5944,-7.5941,-7.5939,-7.5937,-7.5936,-7.5877,-7.578,-7.6,-7.608,-7.6219,-7.6358,-7.6346,-7.6504,-7.6566,-7.6648,-7.6587,-7.6317,-7.629,-7.626,-7.6185,-7.6586,-7.6586,-7.6586,-7.6586,-7.6101,-7.6086,-7.6309,-7.6437,-7.6561,-7.6573,-7.6819,-7.6875,-7.6916,-7.6955,-7.6895,-7.6794,-7.6764,-7.6754,-7.6714,-7.6643,-7.7152,-7.7153,-7.7153,-7.636,-7.6357,-7.657,-7.6611,-7.6719,-7.6811,-7.7043,-7.719,-7.7217,-7.7176,-7.6984,-7.6961,-7.6796,-7.6743,-7.6699,-7.6637,-7.6507,0,0]}]]